User: anonymous   Login
Location: Maiden
(35.5760°N, 81.2120°W)
Time: 14:16:01
(UTC-04:00)
Language:

Cosmos 2151 - Orbit

View from above orbital plane
View from above orbital plane
View from above satellite
View from above satellite

Ground track
Ground track

The orbit data is extracted from the following two-line orbital elements,

1 21422U 91042A   15182.47425347  .00000326  00000-0  30206-4 0  9996
2 21422 082.4997 208.2102 0014968 160.8195 199.3591 14.91214849301661
Epoch (UTC): 01 July 2015 11:22:55
Eccentricity: 0.0014968
inclination: 82.4997°
perigee height: 584 km
apogee height: 604 km
right ascension of ascending node: 208.2102°
argument of perigee: 160.8195°
revolutions per day: 14.91214849
mean anomaly at epoch: 199.3591°
orbit number at epoch: 30166

The dashed part of the orbit path shows where the satellite is in the earth's shadow,  

DLR